owner,sensor,date,latitude,longitude,vertical_datum,direction_of_sea_water_velocity,sea_water_speed,upward_sea_water_velocity,qcFlag 
TABS,ioos:station:wmo:42051:1,2002-04-01T00:00:00Z,29.6350,-93.6417,2.0,246.7522219,52.39391186,-99999.0,'11111222,11111222,99999999' 
TABS,ioos:station:wmo:42051:1,2002-04-01T00:30:00Z,29.6350,-93.6417,2.0,247.0469956,51.38855904,-99999.0,'11111222,11111222,99999999' 
TABS,ioos:station:wmo:42051:1,2002-04-01T01:00:00Z,29.6350,-93.6417,2.0,243.7381094,54.87387812,-99999.0,'11111222,11111222,99999999' 
TABS,ioos:station:wmo:42051:1,2002-04-01T01:30:00Z,29.6350,-93.6417,2.0,248.4113636,50.41663317,-99999.0,'11111222,11111222,99999999' 
TABS,ioos:station:wmo:42051:1,2002-04-01T02:00:00Z,29.6350,-93.6417,2.0,246.3042678,49.21944027,-99999.0,'11111222,11111222,99999999' 
TABS,ioos:station:wmo:42051:1,2002-04-01T02:30:00Z,29.6350,-93.6417,2.0,247.1945975,48.55563819,-99999.0,'11111222,11111222,99999999' 
TABS,ioos:station:wmo:42051:1,2002-04-01T03:00:00Z,29.6350,-93.6417,2.0,245.7230432,47.59912814,-99999.0,'11111222,11111222,99999999' 
TABS,ioos:station:wmo:42051:1,2002-04-01T03:30:00Z,29.6350,-93.6417,2.0,244.9134308,54.9316539,-99999.0,'11111222,11111222,99999999' 
TABS,ioos:station:wmo:42051:1,2002-04-01T04:00:00Z,29.6350,-93.6417,2.0,254.6454911,46.18857543,-99999.0,'11111222,11111222,99999999' 
TABS,ioos:station:wmo:42051:1,2002-04-01T04:30:00Z,29.6350,-93.6417,2.0,262.8102042,41.94981406,-99999.0,'11111222,11111222,99999999' 
TABS,ioos:station:wmo:42051:1,2002-04-01T05:00:00Z,29.6350,-93.6417,2.0,268.2745836,40.52836661,-99999.0,'11111222,11111222,99999999' 
TABS,ioos:station:wmo:42051:1,2002-04-01T05:30:00Z,29.6350,-93.6417,2.0,267.0548936,45.5501449,-99999.0,'11111222,11111222,99999999' 
TABS,ioos:station:wmo:42051:1,2002-04-01T06:00:00Z,29.6350,-93.6417,2.0,272.1980175,44.07241427,-99999.0,'11111222,11111222,99999999' 
TABS,ioos:station:wmo:42051:1,2002-04-01T06:30:00Z,29.6350,-93.6417,2.0,273.7484608,43.29259636,-99999.0,'11111222,11111222,99999999' 
TABS,ioos:station:wmo:42051:1,2002-04-01T07:00:00Z,29.6350,-93.6417,2.0,267.6757129,49.5707676,-99999.0,'11111222,11111222,99999999' 
TABS,ioos:station:wmo:42051:1,2002-04-01T07:30:00Z,29.6350,-93.6417,2.0,271.7734087,46.54228185,-99999.0,'11111222,11111222,99999999' 
TABS,ioos:station:wmo:42051:1,2002-04-01T08:00:00Z,29.6350,-93.6417,2.0,277.538116,38.57332239,-99999.0,'11111222,11111222,99999999' 
TABS,ioos:station:wmo:42051:1,2002-04-01T08:30:00Z,29.6350,-93.6417,2.0,269.6883619,36.82054318,-99999.0,'11111222,11111222,99999999' 
TABS,ioos:station:wmo:42051:1,2002-04-01T09:00:00Z,29.6350,-93.6417,2.0,268.1131585,42.83321375,-99999.0,'11111222,11111222,99999999' 
TABS,ioos:station:wmo:42051:1,2002-04-01T09:30:00Z,29.6350,-93.6417,2.0,263.6347906,51.41692328,-99999.0,'11111222,11111222,99999999' 
TABS,ioos:station:wmo:42051:1,2002-04-01T10:00:00Z,29.6350,-93.6417,2.0,265.2784972,54.79591408,-99999.0,'11111222,11111222,99999999' 
TABS,ioos:station:wmo:42051:1,2002-04-01T10:30:00Z,29.6350,-93.6417,2.0,269.0112402,51.0175901,-99999.0,'11111222,11111222,99999999' 
TABS,ioos:station:wmo:42051:1,2002-04-01T11:00:00Z,29.6350,-93.6417,2.0,262.2848734,50.13377405,-99999.0,'11111222,11111222,99999999' 
TABS,ioos:station:wmo:42051:1,2002-04-01T11:30:00Z,29.6350,-93.6417,2.0,264.932064,46.19054557,-99999.0,'11111222,11111222,99999999' 
TABS,ioos:station:wmo:42051:1,2002-04-01T12:00:00Z,29.6350,-93.6417,2.0,260.7153918,49.71120598,-99999.0,'11111222,11111222,99999999' 
TABS,ioos:station:wmo:42051:1,2002-04-01T12:30:00Z,29.6350,-93.6417,2.0,257.7093906,49.75017789,-99999.0,'11111222,11111222,99999999' 
TABS,ioos:station:wmo:42051:1,2002-04-01T13:00:00Z,29.6350,-93.6417,2.0,259.2361373,45.03227398,-99999.0,'11111222,11111222,99999999' 
TABS,ioos:station:wmo:42051:1,2002-04-01T13:30:00Z,29.6350,-93.6417,2.0,258.0185664,41.52455659,-99999.0,'11111222,11111222,99999999' 
TABS,ioos:station:wmo:42051:1,2002-04-01T14:00:00Z,29.6350,-93.6417,2.0,250.3711867,47.064902,-99999.0,'11111222,11111222,99999999' 
TABS,ioos:station:wmo:42051:1,2002-04-01T14:30:00Z,29.6350,-93.6417,2.0,252.0440076,45.73762237,-99999.0,'11111222,11111222,99999999' 
TABS,ioos:station:wmo:42051:1,2002-04-01T15:00:00Z,29.6350,-93.6417,2.0,252.0551299,40.63675676,-99999.0,'11111222,11111222,99999999' 
TABS,ioos:station:wmo:42051:1,2002-04-01T15:30:00Z,29.6350,-93.6417,2.0,251.3922333,39.92709857,-99999.0,'11111222,11111222,99999999' 
TABS,ioos:station:wmo:42051:1,2002-04-01T16:00:00Z,29.6350,-93.6417,2.0,251.1131907,41.3354146,-99999.0,'11111222,11111222,99999999' 
TABS,ioos:station:wmo:42051:1,2002-04-01T16:30:00Z,29.6350,-93.6417,2.0,259.7271807,42.67402254,-99999.0,'11111222,11111222,99999999' 
TABS,ioos:station:wmo:42051:1,2002-04-01T17:00:00Z,29.6350,-93.6417,2.0,259.9153184,37.40790558,-99999.0,'11111222,11111222,99999999' 
TABS,ioos:station:wmo:42051:1,2002-04-01T17:30:00Z,29.6350,-93.6417,2.0,256.0871169,33.68827689,-99999.0,'11111222,11111222,99999999' 
TABS,ioos:station:wmo:42051:1,2002-04-01T18:00:00Z,29.6350,-93.6417,2.0,252.6676111,31.04983253,-99999.0,'11111222,11111222,99999999' 
TABS,ioos:station:wmo:42051:1,2002-04-01T18:30:00Z,29.6350,-93.6417,2.0,252.4495321,25.80093797,-99999.0,'11111222,11111222,99999999' 
TABS,ioos:station:wmo:42051:1,2002-04-01T19:00:00Z,29.6350,-93.6417,2.0,253.9539081,27.45979242,-99999.0,'11111222,11111222,99999999' 
TABS,ioos:station:wmo:42051:1,2002-04-01T19:30:00Z,29.6350,-93.6417,2.0,245.7538324,31.82742999,-99999.0,'11111222,11111222,99999999' 
TABS,ioos:station:wmo:42051:1,2002-04-01T20:00:00Z,29.6350,-93.6417,2.0,247.7243302,32.10596518,-99999.0,'11111222,11111222,99999999' 
TABS,ioos:station:wmo:42051:1,2002-04-01T20:30:00Z,29.6350,-93.6417,2.0,254.9124797,30.8120577,-99999.0,'11111222,11111222,99999999' 
TABS,ioos:station:wmo:42051:1,2002-04-01T21:00:00Z,29.6350,-93.6417,2.0,248.7593493,29.01071699,-99999.0,'11111222,11111222,99999999' 
TABS,ioos:station:wmo:42051:1,2002-04-01T21:30:00Z,29.6350,-93.6417,2.0,247.5506086,31.21552338,-99999.0,'11111222,11111222,99999999' 
TABS,ioos:station:wmo:42051:1,2002-04-01T22:00:00Z,29.6350,-93.6417,2.0,249.6093937,31.14126844,-99999.0,'11111222,11111222,99999999' 
TABS,ioos:station:wmo:42051:1,2002-04-01T22:30:00Z,29.6350,-93.6417,2.0,249.4348007,30.54656937,-99999.0,'11111222,11111222,99999999' 
TABS,ioos:station:wmo:42051:1,2002-04-01T23:00:00Z,29.6350,-93.6417,2.0,250.2438006,43.0753433,-99999.0,'11111222,11111222,99999999' 
TABS,ioos:station:wmo:42051:1,2002-04-01T23:30:00Z,29.6350,-93.6417,2.0,252.4187164,46.25028649,-99999.0,'11111222,11111222,99999999' 
TABS,ioos:station:wmo:42051:1,2002-04-02T00:00:00Z,29.6350,-93.6417,2.0,247.0586122,43.22914063,-99999.0,'11111222,11111222,99999999' 
TABS,ioos:station:wmo:42051:1,2002-04-02T00:30:00Z,29.6350,-93.6417,2.0,241.0230537,42.08876929,-99999.0,'11111222,11111222,99999999' 
TABS,ioos:station:wmo:42051:1,2002-04-02T01:00:00Z,29.6350,-93.6417,2.0,242.2998573,40.42261991,-99999.0,'11111222,11111222,99999999' 
TABS,ioos:station:wmo:42051:1,2002-04-02T01:30:00Z,29.6350,-93.6417,2.0,241.863793,38.82825904,-99999.0,'11111222,11111222,99999999' 
TABS,ioos:station:wmo:42051:1,2002-04-02T02:00:00Z,29.6350,-93.6417,2.0,241.8918269,33.38765341,-99999.0,'11111222,11111222,99999999' 
TABS,ioos:station:wmo:42051:1,2002-04-02T02:30:00Z,29.6350,-93.6417,2.0,244.0404126,29.60719507,-99999.0,'11111222,11111222,99999999' 
TABS,ioos:station:wmo:42051:1,2002-04-02T03:00:00Z,29.6350,-93.6417,2.0,238.3977228,26.94581415,-99999.0,'11111222,11111222,99999999' 
TABS,ioos:station:wmo:42051:1,2002-04-02T03:30:00Z,29.6350,-93.6417,2.0,241.8547725,25.14296124,-99999.0,'11111222,11111222,99999999' 
TABS,ioos:station:wmo:42051:1,2002-04-02T04:00:00Z,29.6350,-93.6417,2.0,247.7074266,22.32882666,-99999.0,'11111222,11111222,99999999' 
TABS,ioos:station:wmo:42051:1,2002-04-02T04:30:00Z,29.6350,-93.6417,2.0,249.468702,21.35650018,-99999.0,'11111222,11111222,99999999' 
TABS,ioos:station:wmo:42051:1,2002-04-02T05:00:00Z,29.6350,-93.6417,2.0,249.0044473,21.37936388,-99999.0,'11111222,11111222,99999999' 
TABS,ioos:station:wmo:42051:1,2002-04-02T05:30:00Z,29.6350,-93.6417,2.0,251.2178135,22.9838552,-99999.0,'11111222,11111222,99999999' 
TABS,ioos:station:wmo:42051:1,2002-04-02T06:00:00Z,29.6350,-93.6417,2.0,242.4460712,29.03295541,-99999.0,'11111222,11111222,99999999' 
TABS,ioos:station:wmo:42051:1,2002-04-02T06:30:00Z,29.6350,-93.6417,2.0,238.1160898,26.92188701,-99999.0,'11111222,11111222,99999999' 
TABS,ioos:station:wmo:42051:1,2002-04-02T07:00:00Z,29.6350,-93.6417,2.0,238.4361496,24.74002627,-99999.0,'11111222,11111222,99999999' 
TABS,ioos:station:wmo:42051:1,2002-04-02T07:30:00Z,29.6350,-93.6417,2.0,245.2191032,22.25967206,-99999.0,'11111222,11111222,99999999' 
TABS,ioos:station:wmo:42051:1,2002-04-02T08:00:00Z,29.6350,-93.6417,2.0,276.0336598,16.07906092,-99999.0,'11111222,11111222,99999999' 
TABS,ioos:station:wmo:42051:1,2002-04-02T08:30:00Z,29.6350,-93.6417,2.0,274.9997119,15.95068024,-99999.0,'11111222,11111222,99999999' 
TABS,ioos:station:wmo:42051:1,2002-04-02T09:00:00Z,29.6350,-93.6417,2.0,260.0483711,16.37637933,-99999.0,'11111222,11111222,99999999' 
TABS,ioos:station:wmo:42051:1,2002-04-02T09:30:00Z,29.6350,-93.6417,2.0,264.2259414,18.98631613,-99999.0,'11111222,11111222,99999999' 
TABS,ioos:station:wmo:42051:1,2002-04-02T10:00:00Z,29.6350,-93.6417,2.0,265.7737309,20.08460356,-99999.0,'11111222,11111222,99999999' 
TABS,ioos:station:wmo:42051:1,2002-04-02T10:30:00Z,29.6350,-93.6417,2.0,260.0141039,22.1454668,-99999.0,'11111222,11111222,99999999' 
TABS,ioos:station:wmo:42051:1,2002-04-02T11:00:00Z,29.6350,-93.6417,2.0,259.8749311,21.61662323,-99999.0,'11111222,11111222,99999999' 
TABS,ioos:station:wmo:42051:1,2002-04-02T11:30:00Z,29.6350,-93.6417,2.0,249.5688686,20.33945919,-99999.0,'11111222,11111222,99999999' 
TABS,ioos:station:wmo:42051:1,2002-04-02T12:00:00Z,29.6350,-93.6417,2.0,257.0168618,25.32742585,-99999.0,'11111222,11111222,99999999' 
TABS,ioos:station:wmo:42051:1,2002-04-02T12:30:00Z,29.6350,-93.6417,2.0,259.8921758,44.38889613,-99999.0,'11111222,11111222,99999999' 
TABS,ioos:station:wmo:42051:1,2002-04-02T13:00:00Z,29.6350,-93.6417,2.0,263.1282649,35.8575529,-99999.0,'11111222,11111222,99999999' 
TABS,ioos:station:wmo:42051:1,2002-04-02T13:30:00Z,29.6350,-93.6417,2.0,259.1064059,36.67076492,-99999.0,'11111222,11111222,99999999' 
TABS,ioos:station:wmo:42051:1,2002-04-02T14:00:00Z,29.6350,-93.6417,2.0,256.5257616,33.6049297,-99999.0,'11111222,11111222,99999999' 
TABS,ioos:station:wmo:42051:1,2002-04-02T14:30:00Z,29.6350,-93.6417,2.0,248.0068599,31.13571101,-99999.0,'11111222,11111222,99999999' 
TABS,ioos:station:wmo:42051:1,2002-04-02T15:00:00Z,29.6350,-93.6417,2.0,248.0923627,32.16248747,-99999.0,'11111222,11111222,99999999' 
TABS,ioos:station:wmo:42051:1,2002-04-02T15:30:00Z,29.6350,-93.6417,2.0,246.4104094,26.96308959,-99999.0,'11111222,11111222,99999999' 
TABS,ioos:station:wmo:42051:1,2002-04-02T16:00:00Z,29.6350,-93.6417,2.0,252.3897336,28.98844252,-99999.0,'11111222,11111222,99999999' 
TABS,ioos:station:wmo:42051:1,2002-04-02T16:30:00Z,29.6350,-93.6417,2.0,255.4245857,27.33982443,-99999.0,'11111222,11111222,99999999' 
TABS,ioos:station:wmo:42051:1,2002-04-02T17:00:00Z,29.6350,-93.6417,2.0,250.478786,27.53257162,-99999.0,'11111222,11111222,99999999' 
TABS,ioos:station:wmo:42051:1,2002-04-02T17:30:00Z,29.6350,-93.6417,2.0,239.8617441,22.96433104,-99999.0,'11111222,11111222,99999999' 
TABS,ioos:station:wmo:42051:1,2002-04-02T18:00:00Z,29.6350,-93.6417,2.0,239.2351487,19.72588655,-99999.0,'11111222,11111222,99999999' 
TABS,ioos:station:wmo:42051:1,2002-04-02T18:30:00Z,29.6350,-93.6417,2.0,240.4506863,22.8522931,-99999.0,'11111222,11111222,99999999' 
TABS,ioos:station:wmo:42051:1,2002-04-02T19:00:00Z,29.6350,-93.6417,2.0,225.5988596,19.60914328,-99999.0,'11111222,11111222,99999999' 
TABS,ioos:station:wmo:42051:1,2002-04-02T19:30:00Z,29.6350,-93.6417,2.0,236.2773338,19.70572759,-99999.0,'11111222,11111222,99999999' 
TABS,ioos:station:wmo:42051:1,2002-04-02T20:00:00Z,29.6350,-93.6417,2.0,246.653258,23.41726713,-99999.0,'11111222,11111222,99999999' 
TABS,ioos:station:wmo:42051:1,2002-04-02T20:30:00Z,29.6350,-93.6417,2.0,243.7295879,23.4521918,-99999.0,'11111222,11111222,99999999' 
TABS,ioos:station:wmo:42051:1,2002-04-02T21:00:00Z,29.6350,-93.6417,2.0,244.3141879,21.84895879,-99999.0,'11111222,11111222,99999999' 
TABS,ioos:station:wmo:42051:1,2002-04-02T21:30:00Z,29.6350,-93.6417,2.0,239.3882623,20.91464798,-99999.0,'11111222,11111222,99999999' 
TABS,ioos:station:wmo:42051:1,2002-04-02T22:00:00Z,29.6350,-93.6417,2.0,243.106673,22.66068401,-99999.0,'11111222,11111222,99999999' 
TABS,ioos:station:wmo:42051:1,2002-04-02T22:30:00Z,29.6350,-93.6417,2.0,239.9094843,19.34728922,-99999.0,'11111222,11111222,99999999' 
TABS,ioos:station:wmo:42051:1,2002-04-02T23:00:00Z,29.6350,-93.6417,2.0,227.2671564,16.79986905,-99999.0,'11111222,11111222,99999999' 
TABS,ioos:station:wmo:42051:1,2002-04-02T23:30:00Z,29.6350,-93.6417,2.0,230.8710813,20.80616495,-99999.0,'11111222,11111222,99999999' 
TABS,ioos:station:wmo:42051:1,2002-04-03T00:30:00Z,29.6350,-93.6417,2.0,231.6621458,17.49173805,-99999.0,'11111222,11111222,99999999' 
TABS,ioos:station:wmo:42051:1,2002-04-03T01:00:00Z,29.6350,-93.6417,2.0,240.4747112,16.80186894,-99999.0,'11111222,11111222,99999999' 
TABS,ioos:station:wmo:42051:1,2002-04-03T01:30:00Z,29.6350,-93.6417,2.0,222.2998687,18.91488832,-99999.0,'11111222,11111222,99999999' 
TABS,ioos:station:wmo:42051:1,2002-04-03T02:00:00Z,29.6350,-93.6417,2.0,226.9121851,16.10272027,-99999.0,'11111222,11111222,99999999' 
TABS,ioos:station:wmo:42051:1,2002-04-03T02:30:00Z,29.6350,-93.6417,2.0,228.6728827,17.21806609,-99999.0,'11111222,11111222,99999999' 
TABS,ioos:station:wmo:42051:1,2002-04-03T03:00:00Z,29.6350,-93.6417,2.0,230.7382289,18.74032284,-99999.0,'11111222,11111222,99999999' 
TABS,ioos:station:wmo:42051:1,2002-04-03T03:30:00Z,29.6350,-93.6417,2.0,227.6676134,17.16594594,-99999.0,'11111222,11111222,99999999' 
TABS,ioos:station:wmo:42051:1,2002-04-03T04:00:00Z,29.6350,-93.6417,2.0,231.4364885,20.37289621,-99999.0,'11111222,11111222,99999999' 
TABS,ioos:station:wmo:42051:1,2002-04-03T04:30:00Z,29.6350,-93.6417,2.0,224.6556312,20.01855389,-99999.0,'11111222,11111222,99999999' 
TABS,ioos:station:wmo:42051:1,2002-04-03T05:00:00Z,29.6350,-93.6417,2.0,251.8018509,21.38982936,-99999.0,'11111222,11111222,99999999' 
TABS,ioos:station:wmo:42051:1,2002-04-03T05:30:00Z,29.6350,-93.6417,2.0,246.3571327,19.99856995,-99999.0,'11111222,11111222,99999999' 
TABS,ioos:station:wmo:42051:1,2002-04-03T06:00:00Z,29.6350,-93.6417,2.0,248.0824369,18.37830514,-99999.0,'11111222,11111222,99999999' 
TABS,ioos:station:wmo:42051:1,2002-04-03T06:30:00Z,29.6350,-93.6417,2.0,254.4130539,22.59076139,-99999.0,'11111222,11111222,99999999' 
TABS,ioos:station:wmo:42051:1,2002-04-03T07:00:00Z,29.6350,-93.6417,2.0,259.4343238,24.59700185,-99999.0,'11111222,11111222,99999999' 
TABS,ioos:station:wmo:42051:1,2002-04-03T07:30:00Z,29.6350,-93.6417,2.0,257.8323387,20.97108486,-99999.0,'11111222,11111222,99999999' 
TABS,ioos:station:wmo:42051:1,2002-04-03T08:00:00Z,29.6350,-93.6417,2.0,260.917351,22.55274928,-99999.0,'11111222,11111222,99999999' 
TABS,ioos:station:wmo:42051:1,2002-04-03T08:30:00Z,29.6350,-93.6417,2.0,261.3871948,21.16869859,-99999.0,'11111222,11111222,99999999' 
TABS,ioos:station:wmo:42051:1,2002-04-03T09:00:00Z,29.6350,-93.6417,2.0,265.3147983,25.344674,-99999.0,'11111222,11111222,99999999' 
TABS,ioos:station:wmo:42051:1,2002-04-03T09:30:00Z,29.6350,-93.6417,2.0,276.0736045,32.70354721,-99999.0,'11111222,11111222,99999999' 
TABS,ioos:station:wmo:42051:1,2002-04-03T10:00:00Z,29.6350,-93.6417,2.0,282.7531343,33.02466048,-99999.0,'11111222,11111222,99999999' 
TABS,ioos:station:wmo:42051:1,2002-04-03T10:30:00Z,29.6350,-93.6417,2.0,275.304345,31.26386093,-99999.0,'11111222,11111222,99999999' 
TABS,ioos:station:wmo:42051:1,2002-04-03T11:00:00Z,29.6350,-93.6417,2.0,262.4268592,31.11134198,-99999.0,'11111222,11111222,99999999' 
TABS,ioos:station:wmo:42051:1,2002-04-03T11:30:00Z,29.6350,-93.6417,2.0,259.8387923,33.44452721,-99999.0,'11111222,11111222,99999999' 
TABS,ioos:station:wmo:42051:1,2002-04-03T12:00:00Z,29.6350,-93.6417,2.0,257.2807178,36.290496,-99999.0,'11111222,11111222,99999999' 
TABS,ioos:station:wmo:42051:1,2002-04-03T12:30:00Z,29.6350,-93.6417,2.0,256.0478016,36.20818278,-99999.0,'11111222,11111222,99999999' 
TABS,ioos:station:wmo:42051:1,2002-04-03T13:00:00Z,29.6350,-93.6417,2.0,256.2522718,34.63210216,-99999.0,'11111222,11111222,99999999' 
TABS,ioos:station:wmo:42051:1,2002-04-03T13:30:00Z,29.6350,-93.6417,2.0,253.9234138,35.49818305,-99999.0,'11111222,11111222,99999999' 
TABS,ioos:station:wmo:42051:1,2002-04-03T14:00:00Z,29.6350,-93.6417,2.0,240.9732403,41.44574405,-99999.0,'11111222,11111222,99999999' 
TABS,ioos:station:wmo:42051:1,2002-04-03T14:30:00Z,29.6350,-93.6417,2.0,239.3823032,39.99591604,-99999.0,'11111222,11111222,99999999' 
TABS,ioos:station:wmo:42051:1,2002-04-03T15:00:00Z,29.6350,-93.6417,2.0,234.4804917,43.18600005,-99999.0,'11111222,11111222,99999999' 
TABS,ioos:station:wmo:42051:1,2002-04-03T15:30:00Z,29.6350,-93.6417,2.0,232.5936437,40.18375916,-99999.0,'11111222,11111222,99999999' 
TABS,ioos:station:wmo:42051:1,2002-04-03T16:00:00Z,29.6350,-93.6417,2.0,232.8245524,44.30262859,-99999.0,'11111222,11111222,99999999' 
TABS,ioos:station:wmo:42051:1,2002-04-03T16:30:00Z,29.6350,-93.6417,2.0,232.7574732,44.63094218,-99999.0,'11111222,11111222,99999999' 
TABS,ioos:station:wmo:42051:1,2002-04-03T17:00:00Z,29.6350,-93.6417,2.0,231.2281117,44.8406958,-99999.0,'11111222,11111222,99999999' 
TABS,ioos:station:wmo:42051:1,2002-04-03T17:30:00Z,29.6350,-93.6417,2.0,229.2354041,44.99589759,-99999.0,'11111222,11111222,99999999' 
TABS,ioos:station:wmo:42051:1,2002-04-03T18:00:00Z,29.6350,-93.6417,2.0,232.0692187,47.11207064,-99999.0,'11111222,11111222,99999999' 
TABS,ioos:station:wmo:42051:1,2002-04-03T18:30:00Z,29.6350,-93.6417,2.0,235.668462,47.09422151,-99999.0,'11111222,11111222,99999999' 
TABS,ioos:station:wmo:42051:1,2002-04-03T19:00:00Z,29.6350,-93.6417,2.0,240.1581816,45.61879985,-99999.0,'11111222,11111222,99999999' 
TABS,ioos:station:wmo:42051:1,2002-04-03T19:30:00Z,29.6350,-93.6417,2.0,242.338987,42.80169389,-99999.0,'11111222,11111222,99999999' 
TABS,ioos:station:wmo:42051:1,2002-04-03T20:00:00Z,29.6350,-93.6417,2.0,243.5637531,43.64368568,-99999.0,'11111222,11111222,99999999' 
TABS,ioos:station:wmo:42051:1,2002-04-03T20:30:00Z,29.6350,-93.6417,2.0,240.2465998,43.5051836,-99999.0,'11111222,11111222,99999999' 
TABS,ioos:station:wmo:42051:1,2002-04-03T21:00:00Z,29.6350,-93.6417,2.0,247.39401,55.69923249,-99999.0,'11111222,11111222,99999999' 
TABS,ioos:station:wmo:42051:1,2002-04-03T21:30:00Z,29.6350,-93.6417,2.0,252.323038,50.65147579,-99999.0,'11111222,11111222,99999999' 
TABS,ioos:station:wmo:42051:1,2002-04-03T22:00:00Z,29.6350,-93.6417,2.0,250.8611662,50.48008122,-99999.0,'11111222,11111222,99999999' 
TABS,ioos:station:wmo:42051:1,2002-04-03T22:30:00Z,29.6350,-93.6417,2.0,250.2516815,49.95813047,-99999.0,'11111222,11111222,99999999' 
TABS,ioos:station:wmo:42051:1,2002-04-03T23:00:00Z,29.6350,-93.6417,2.0,254.9301496,43.57861058,-99999.0,'11111222,11111222,99999999' 
TABS,ioos:station:wmo:42051:1,2002-04-03T23:30:00Z,29.6350,-93.6417,2.0,252.3316796,40.39539206,-99999.0,'11111222,11111222,99999999' 
TABS,ioos:station:wmo:42051:1,2002-04-04T00:00:00Z,29.6350,-93.6417,2.0,250.7014542,46.59828752,-99999.0,'11111222,11111222,99999999' 
TABS,ioos:station:wmo:42051:1,2002-04-04T00:30:00Z,29.6350,-93.6417,2.0,247.3982284,47.74692556,-99999.0,'11111222,11111222,99999999' 
TABS,ioos:station:wmo:42051:1,2002-04-04T01:00:00Z,29.6350,-93.6417,2.0,250.4735402,42.84398207,-99999.0,'11111222,11111222,99999999' 
TABS,ioos:station:wmo:42051:1,2002-04-04T01:30:00Z,29.6350,-93.6417,2.0,245.6458234,41.03109553,-99999.0,'11111222,11111222,99999999' 
TABS,ioos:station:wmo:42051:1,2002-04-04T02:00:00Z,29.6350,-93.6417,2.0,244.1232672,40.55625846,-99999.0,'11111222,11111222,99999999' 
TABS,ioos:station:wmo:42051:1,2002-04-04T02:30:00Z,29.6350,-93.6417,2.0,249.7048041,42.87144737,-99999.0,'11111222,11111222,99999999' 
TABS,ioos:station:wmo:42051:1,2002-04-04T03:00:00Z,29.6350,-93.6417,2.0,244.9059013,39.18883132,-99999.0,'11111222,11111222,99999999' 
TABS,ioos:station:wmo:42051:1,2002-04-04T03:30:00Z,29.6350,-93.6417,2.0,237.5156363,44.53842498,-99999.0,'11111222,11111222,99999999' 
TABS,ioos:station:wmo:42051:1,2002-04-04T04:00:00Z,29.6350,-93.6417,2.0,245.1059532,41.85911251,-99999.0,'11111222,11111222,99999999' 
TABS,ioos:station:wmo:42051:1,2002-04-04T04:30:00Z,29.6350,-93.6417,2.0,244.5542321,35.703406,-99999.0,'11111222,11111222,99999999' 
TABS,ioos:station:wmo:42051:1,2002-04-04T05:00:00Z,29.6350,-93.6417,2.0,245.4980041,34.52939038,-99999.0,'11111222,11111222,99999999' 
TABS,ioos:station:wmo:42051:1,2002-04-04T05:30:00Z,29.6350,-93.6417,2.0,248.7141525,37.32627627,-99999.0,'11111222,11111222,99999999' 
TABS,ioos:station:wmo:42051:1,2002-04-04T06:00:00Z,29.6350,-93.6417,2.0,243.6933624,33.66658284,-99999.0,'11111222,11111222,99999999' 
TABS,ioos:station:wmo:42051:1,2002-04-04T06:30:00Z,29.6350,-93.6417,2.0,245.0468479,36.71735557,-99999.0,'11111222,11111222,99999999' 
TABS,ioos:station:wmo:42051:1,2002-04-04T07:00:00Z,29.6350,-93.6417,2.0,243.0798053,45.50038351,-99999.0,'11111222,11111222,99999999' 
TABS,ioos:station:wmo:42051:1,2002-04-04T07:30:00Z,29.6350,-93.6417,2.0,253.862261,35.25928105,-99999.0,'11111222,11111222,99999999' 
TABS,ioos:station:wmo:42051:1,2002-04-04T08:00:00Z,29.6350,-93.6417,2.0,252.7729959,34.34048485,-99999.0,'11111222,11111222,99999999' 
TABS,ioos:station:wmo:42051:1,2002-04-04T08:30:00Z,29.6350,-93.6417,2.0,253.0896778,39.33052885,-99999.0,'11111222,11111222,99999999' 
TABS,ioos:station:wmo:42051:1,2002-04-04T09:00:00Z,29.6350,-93.6417,2.0,253.2374846,31.41480543,-99999.0,'11111222,11111222,99999999' 
TABS,ioos:station:wmo:42051:1,2002-04-04T09:30:00Z,29.6350,-93.6417,2.0,251.7545267,31.49329611,-99999.0,'11111222,11111222,99999999' 
TABS,ioos:station:wmo:42051:1,2002-04-04T10:00:00Z,29.6350,-93.6417,2.0,245.8324932,39.22814933,-99999.0,'11111222,11111222,99999999' 
TABS,ioos:station:wmo:42051:1,2002-04-04T10:30:00Z,29.6350,-93.6417,2.0,254.346155,39.35980691,-99999.0,'11111222,11111222,99999999' 
TABS,ioos:station:wmo:42051:1,2002-04-04T11:00:00Z,29.6350,-93.6417,2.0,250.3031113,44.23833858,-99999.0,'11111222,11111222,99999999' 
TABS,ioos:station:wmo:42051:1,2002-04-04T11:30:00Z,29.6350,-93.6417,2.0,251.0512704,43.7613551,-99999.0,'11111222,11111222,99999999' 
TABS,ioos:station:wmo:42051:1,2002-04-04T12:00:00Z,29.6350,-93.6417,2.0,251.499574,44.53122275,-99999.0,'11111222,11111222,99999999' 
TABS,ioos:station:wmo:42051:1,2002-04-04T12:30:00Z,29.6350,-93.6417,2.0,247.4693018,46.27159496,-99999.0,'11111222,11111222,99999999' 
TABS,ioos:station:wmo:42051:1,2002-04-04T13:00:00Z,29.6350,-93.6417,2.0,248.272694,50.00222595,-99999.0,'11111222,11111222,99999999' 
TABS,ioos:station:wmo:42051:1,2002-04-04T13:30:00Z,29.6350,-93.6417,2.0,247.9311548,49.79845982,-99999.0,'11111222,11111222,99999999' 
TABS,ioos:station:wmo:42051:1,2002-04-04T14:00:00Z,29.6350,-93.6417,2.0,245.9512521,54.18299364,-99999.0,'11111222,11111222,99999999' 
TABS,ioos:station:wmo:42051:1,2002-04-04T14:30:00Z,29.6350,-93.6417,2.0,246.5666469,57.13190702,-99999.0,'11111222,11111222,99999999' 
TABS,ioos:station:wmo:42051:1,2002-04-04T15:00:00Z,29.6350,-93.6417,2.0,243.0685574,59.50298312,-99999.0,'11111222,11111222,99999999' 
TABS,ioos:station:wmo:42051:1,2002-04-04T15:30:00Z,29.6350,-93.6417,2.0,248.1043126,54.38280978,-99999.0,'11111222,11111222,99999999' 
TABS,ioos:station:wmo:42051:1,2002-04-04T16:00:00Z,29.6350,-93.6417,2.0,243.2420928,55.9064871,-99999.0,'11111222,11111222,99999999' 
TABS,ioos:station:wmo:42051:1,2002-04-04T16:30:00Z,29.6350,-93.6417,2.0,243.0559378,54.13638795,-99999.0,'11111222,11111222,99999999' 